EW3692 Weather Reports


time (UTC)temp
F
wind
direction
speed
knots
gust
knots
rain 1hr
in
rain 24hr
in
rain mn
in
humidity
%
barometer
mb
20260505221538 66 179 6.1 13.0 0.00 0.00 0.00 56 1013.9
20260505220042 68 148 3.5 9.6 0.00 0.00 0.00 55 1013.8
20260505214537 68 180 3.5 7.0 0.00 0.00 0.00 56 1013.7
20260505213043 68 149 1.7 8.7 0.00 0.00 0.00 57 1013.7
20260505211542 68 178 1.7 7.8 0.00 0.00 0.00 59 1013.6
20260505210034 68 166 0.9 6.1 0.00 0.00 0.00 57 1013.5
20260505204535 69 113 0.9 7.8 0.00 0.00 0.00 58 1013.6
20260505203037 70 158 1.7 7.0 0.00 0.00 0.00 57 1014.0
20260505201534 69 184 0.0 7.8 0.00 0.00 0.00 57 1013.9
20260505200029 69 178 2.6 7.0 0.00 0.00 0.00 59 1014.1
20260505194528 68 9 1.7 6.1 0.00 0.00 0.00 55 1014.3
20260505193028 69 30 2.6 7.0 0.00 0.00 0.00 56 1014.3
20260505191526 69 173 1.7 6.1 0.00 0.00 0.00 58 1014.7
20260505190035 69 171 1.7 7.0 0.00 0.00 0.00 58 1015.0
20260505184527 69 300 1.7 7.0 0.00 0.00 0.00 60 1015.4
20260505183022 69 186 2.6 7.0 0.00 0.00 0.00 56 1015.4
20260505181519 68 200 3.5 7.8 0.00 0.00 0.00 57 1015.6
20260505180020 68 149 2.6 7.8 0.00 0.00 0.00 58 1015.6
20260505174513 68 121 0.9 9.6 0.00 0.00 0.00 59 1015.6
20260505173012 67 154 2.6 6.1 0.00 0.00 0.00 58 1016.0
20260505171511 67 159 0.0 7.8 0.00 0.00 0.00 58 1016.4
20260505170010 67 174 1.7 7.0 0.00 0.00 0.00 58 1016.5
20260505164509 66 167 1.7 8.7 0.00 0.00 0.00 60 1016.7
20260505163010 66 118 1.7 7.8 0.00 0.00 0.00 57 1016.5
20260505161507 66 178 1.7 6.1 0.00 0.00 0.00 63 1016.4
20260505153002 64 175 1.7 7.0 0.00 0.00 0.00 61 1016.7
20260505151604 62 169 3.5 10.4 0.00 0.00 0.00 60 1016.7
20260505124538 57 15 0.0 0.0 0.00 0.00 0.00 71 1016.4
20260505123047 55 15 0.0 0.0 0.00 0.00 0.00 74 1016.4
20260505121534 51 15 0.0 0.0 0.00 0.00 0.00 77 1016.4
20260505120043 47 15 0.0 0.0 0.00 0.00 0.00 82 1016.3
20260505114532 47 15 0.0 0.0 0.00 0.00 0.00 82 1016.1
20260505113031 46 15 0.0 0.0 0.00 0.00 0.00 80 1016.2
20260505111533 46 15 0.0 0.0 0.00 0.00 0.00 80 1015.9
20260505101530 46 15 0.0 0.0 0.00 0.00 0.00 81 1015.8
20260505100030 46 15 0.0 0.0 0.00 0.00 0.00 81 1015.7
20260505094523 47 15 0.0 1.7 0.00 0.00 0.00 80 1015.9
20260505093020 48 15 0.0 0.0 0.00 0.00 0.00 79 1015.8
20260505091520 48 15 0.0 0.0 0.00 0.00 0.00 78 1016.0
20260505090016 49 15 0.0 1.7 0.00 0.00 0.00 77 1016.0
20260505084515 51 15 0.0 0.0 0.00 0.00 0.00 76 1015.8
20260505083021 51 15 0.0 0.0 0.00 0.00 0.00 75 1015.8
20260505081515 50 15 0.0 0.0 0.00 0.00 0.00 78 1016.0
20260505080023 49 15 0.0 0.0 0.00 0.00 0.00 78 1015.9
20260505074511 49 15 0.0 0.0 0.00 0.00 0.00 79 1016.0
20260505073022 50 15 0.0 0.0 0.00 0.00 0.00 78 1015.9
20260505071507 51 15 0.0 0.0 0.00 0.00 0.00 78 1016.0
20260505070006 51 15 0.0 0.0 0.00 0.00 0.00 77 1016.0
20260505064505 52 15 0.0 0.0 0.00 0.00 0.00 77 1015.9
20260505063004 52 15 0.0 2.6 0.00 0.00 0.00 77 1016.0
20260505061503 51 13 0.0 0.9 0.00 0.00 0.00 77 1016.0
20260505060001 51 65 0.0 2.6 0.00 0.00 0.00 78 1016.2
20260505054606 52 64 0.0 0.0 0.00 0.00 0.00 77 1016.3
20260505053059 52 64 0.0 0.0 0.00 0.00 0.00 75 1016.4
20260505051557 53 65 0.0 0.9 0.00 0.00 0.00 75 1016.4
20260505041600 52 82 0.0 0.0 0.00 0.00 0.00 79 1016.5
20260505040050 53 82 0.0 0.0 0.00 0.00 0.00 79 1016.5
20260505034549 53 82 0.0 1.7 0.00 0.00 0.00 79 1016.5
20260505033049 54 82 0.0 3.5 0.00 0.00 0.00 77 1016.7
20260505031548 55 157 0.0 2.6 0.00 0.00 0.00 76 1016.7
20260505030105 54 157 0.0 5.2 0.00 0.00 0.00 76 1016.9
20260505024550 53 90 0.0 0.0 0.00 0.00 0.00 78 1016.9
20260505023046 54 90 0.0 0.0 0.00 0.00 0.00 78 1016.9
20260505021547 54 90 0.0 0.0 0.00 0.00 0.00 77 1016.9
20260505020047 55 90 0.0 0.0 0.00 0.00 0.00 76 1016.9
20260505014603 56 90 0.0 0.0 0.00 0.00 0.00 76 1016.8
20260505013051 57 90 0.0 0.0 0.00 0.00 0.00 76 1016.6
20260505011546 58 188 0.0 0.0 0.00 0.00 0.00 74 1016.5
20260505010053 59 188 0.0 0.9 0.00 0.00 0.00 75 1016.3
20260505004549 60 188 0.9 4.3 0.00 0.00 0.00 73 1016.2
20260505003054 61 130 0.0 0.0 0.00 0.00 0.00 73 1016.2
20260505001545 62 130 0.0 2.6 0.00 0.00 0.00 72 1016.0
20260505000041 63 130 1.7 4.3 0.00 0.00 0.00 69 1016.0
20260504234543 63 187 0.0 4.3 0.00 0.00 0.00 69 1015.8
20260504233042 64 194 0.0 1.7 0.00 0.00 0.00 70 1015.7
20260504231540 64 117 0.9 3.5 0.00 0.00 0.00 68 1015.8
20260504230040 65 170 1.7 5.2 0.00 0.00 0.00 66 1015.6
20260504224538 65 153 0.9 3.5 0.00 0.00 0.00 64 1015.7
20260504223055 66 116 0.9 4.3 0.00 0.00 0.00 63 1015.8